Location: Newark
(43.6583°N, 1.6617°E)
Time: 03:38:38
(UTC+00:00)

Transit 4A - Pass Details

Date: 30 August 2019
Orbit: 865 x 980 km, 66.8° (Epoch: 21 September)

Event Time Altitude Azimuth Distance (km) Brightness Sun altitude
Rises 22:47:24 0° 333° (NNW) 3,647 12.0 -35.4°
Reaches altitude 10° 22:51:01 10° 353° (N) 2,678 11.0 -35.6°
Maximum altitude 22:54:58 17° 33° (NNE) 2,180 10.1 -35.8°
Enters shadow 22:56:52 15° 55° (NE) 2,290 10.1 -35.9°
Drops below altitude 10° 22:58:50 10° 73° (ENE) 2,621 - -36.0°
Sets 23:02:18 0° 93° (E) 3,536 - -36.2°
